THOR ABLESTAR DEB, 516

Orbit data source: Space-Track

THOR ABLESTAR DEB, 516 is space debris in LEO originally from a launch on Thu, 29 Jun 1961 UTC launched from the Air Force Eastern Test Range (AFETR). Debris objects in space refer to the collection of defunct objects orbiting the Earth. Examples of debris include non-operational satellites, rocket bodies, and fragments generated from explosions, collisions, or faulty payload assembly.

Loading next visibility...
Identifier
516, 1961-015FT
Orbit
LEO
Country
Flag of USUS
Related business
Manufacturer
Unknown
Mission
Spacecraft
Bus & Motor
Unknown
Mass
Unknown
Launch date (UTC)
1961-06-29 (65 years ago)
Launch vehicle
Unknown
Launch site
Air Force Eastern Test Range (AFETR)
Object type
Payload
Rocket body
Debris
Shape & HBR
Unknown shape, 0.1 m
Radar Cross Section
Medium (>0.1 m² and <1 m²)

Expand to show TLE details & history
Last TLE update: 10 hours ago

TLE from 10 hours ago
0 THOR ABLESTAR DEB
1 00516U 61015FT  26227.53177700  .00000069  00000-0  11489-3 0  9995
2 00516  65.9965 356.8805 0072724 111.5983 249.2859 13.92836536296652
Epoch: 2026-08-15T12:45Z
TLE epoch observation values (Epoch: 2026-08-15T12:45:45.532Z)
Latitude
-0.00003°
Longitude
-158.50054°
Altitude
939.831 km
Speed
7.373 km/s
True Right ascension
23h 47m 31s
True Declination
0° 00' 00"
Sunlit
Object was in full shadow at epoch
Visualization orbit readout
Latitude
Unknown
Longitude
Unknown
Altitude
Unknown
Speed
Unknown
Apparent Right ascension
Unknown
Apparent Declination
Unknown
Sunlit
N/A
Visualization observer readout
Local Sidereal Time
13:16:12
Azimuth
Unknown
Elevation
Unknown
Doppler factor
Unknown
Orbital elements
Apogee altitude
970.247 km
Perigee altitude
864.138 km
Semi-major axis
7,295.329 km
Eccentricity
0.00727
Inclination
65.9965°
RAAN
356.8805°
Arg. of periapsis
111.5983°
True anomaly
248.50894°
Mean anomaly
249.2859°
Eccentric anomaly
248.89717°
Mean motion
3.48318 °/min
Orbital period
103.35 mins
BSTAR
0.00011489
Loading maneuver chart data...
Computing Atmospheric mass density...
Loading historical data...
Loading historical data...
Loading historical data...
Loading historical data...
Loading historical data...
Loading historical data...
Loading historical data...

Documentation

Showing up to 5 results
|